Location: ShareBrained
(45.5589°N, 122.6491°W)
Time: 01:35:27
(UTC-08:00)

NOAA 19 - Pass Details

Date: 27 September 2023
Orbit: 839 x 860 km, 99.1° (Epoch: 08 December)

Event Time Altitude Azimuth Distance (km) Brightness Sun altitude
Exits shadow 20:55:16 41° 125° (SE) 1,215 5.5 -20.9°
Maximum altitude 20:56:56 58° 70° (ENE) 990 5.3 -21.2°
Drops below altitude 10° 21:02:21 10° 353° (N) 2,495 8.0 -22.1°
Sets 21:04:46 0° 349° (N) 3,439 8.8 -22.5°
